Regional Weather Roundup
Issued by NWS Kansas City/Pleasant Hill, MO

Home | Current Version | Previous Version | Text Only | Print | Product List | Glossary On
Versions: 1 2 3 4 5 6 7 8 9 10 11 12 13 14 15 16 17 18 19 20 21 22 23 24 25 26 27 28
000
ASUS43 KEAX 050510
RWREAX

WEATHER ROUNDUP FOR EASTERN KANSAS AND NORTHWEST MISSOURI
NATIONAL WEATHER SERVICE KANSAS CITY/PLEASANT HILL MO
1200 AM CDT THU MAY 05 2016

KSZ040-057-103>105-MOZ028-029-037-043-050600-
...KANSAS CITY METROPOLITAN AREA...

CITY           SKY/WX    TMP DP  RH WIND       PRES   REMARKS
K.C. INTL      CLEAR     55  37  50 N7        30.01S
K.C. DOWNTOWN  CLEAR     54  41  61 CALM      30.00S
LEES SUMMIT    CLEAR     57  38  48 CALM      30.01S
OLATHE - IXD   PTCLDY    51  40  65 NW3       30.02S
OLATHE - OJC   CLEAR     56  38  50 N3        30.02R
LAWRENCE       CLEAR     47  42  83 NW8       30.02S

$$

MOZ001>008-011>017-020>025-030>033-038>040-044>046-053-054-050600-
...NORTHERN AND CENTRAL MISSOURI...

CITY           SKY/WX    TMP DP  RH WIND       PRES   REMARKS
ST. JOSEPH     CLEAR     50  42  74 CALM      30.01S
MOSBY          CLEAR     46  45  93 CALM      30.01S
WARRENSBURG    CLEAR     52  37  58 W5        30.00S
WHITEMAN AFB   CLEAR     53  39  57 W2        29.98S
CLINTON        CLEAR     48  39  71 CALM      30.00S
SEDALIA        CLEAR     54  38  54 W7        29.99S
WARSAW         NOT AVBL
CHILLICOTHE      N/A     49  42  77 CALM      29.99S
KIRKSVILLE     CLEAR     50  36  58 NW6       29.96R

$$

MOZ041-047>049-056>058-063>065-088>090-097-050600-
...EASTERN AND SOUTHERN MISSOURI...

CITY           SKY/WX    TMP DP  RH WIND       PRES   REMARKS
ST. LOUIS INTL PTCLDY    56  37  49 NW6       29.90S
SPIRIT OF STL  PTCLDY    49  41  74 W6        29.89F
COLUMBIA       CLEAR     50  37  61 W7        29.95S
JEFFERSON CITY CLEAR     49  40  71 NW3       29.95S
ROLLA          PTCLDY    50  36  58 W5        29.93F
OSAGE BEACH    CLEAR     48  34  57 W3        29.98R
SPRINGFIELD    CLEAR     53  38  56 NW5       29.99R
JOPLIN         PTCLDY    50  43  77 CALM      30.01S
WEST PLAINS    CLEAR     52  35  52 NW5       29.97R

$$

IAZ060-094-KSZ022-034>040-054-083-096-NEZ052-066-093-050600-
...KANSAS...SOUTHEAST NEBRASKA AND IOWA...

CITY           SKY/WX    TMP DP  RH WIND       PRES   REMARKS
TOPEKA         CLEAR     50  43  77 CALM      30.03R
MANHATTAN      CLEAR     47  40  76 CALM      30.04R
EMPORIA        CLEAR     53  40  61 W3        30.03S
CHANUTE        CLEAR     48  41  76 CALM      30.02S
WICHITA        CLEAR     54  40  59 NW3       30.05S
OMAHA          CLEAR     52  43  71 CALM      30.01S
LINCOLN        CLEAR     48  40  73 N5        30.05S
FALLS CITY     CLEAR     53  39  59 CALM      30.02R
LAMONI         CLEAR     48  40  73 W8        29.97F
DES MOINES     CLEAR     55  35  47 N5        29.98R

$$





USA.gov is the U.S. government's official web portal to all federal, state and local government web resources and services.